User: anonymous   Login
Location: St. Louis
(38.6270°N, 90.1994°W)
Time: 13:28:24
(UTC-06:00)
Language:

DIWATA 2B (PO-101) - Orbit

View from above orbital plane
View from above orbital plane
View from above satellite
View from above satellite

Ground track
Ground track

The orbit data is extracted from the following two-line orbital elements,

1 43678U 18084H   22019.56609336  .00000131  00000-0  18697-4 0  9991
2 43678  97.9480 151.3449 0011229  60.5106 299.7236 14.91881982175650
Epoch (UTC): 19 January 2022 13:35:10
Eccentricity: 0.0011229
inclination: 97.9480°
perigee height: 584 km
apogee height: 600 km
right ascension of ascending node: 151.3449°
argument of perigee: 60.5106°
revolutions per day: 14.91881982
mean anomaly at epoch: 299.7236°
orbit number at epoch: 17565

The dashed part of the orbit path shows where the satellite is in the earth's shadow,  

DLR